This is the latest recevied weather packets stored in our database for station/object KK7DS. If no packets are shown the sender has not sent any weather packets the latest 10 day(s).
| Time | Temp. | Humidity | Pressure | Rain* | Wind** | Luminosity | Snow |
|---|---|---|---|---|---|---|---|
| 1777857299 | 31.11° C | 29% | 1007.7 hPa | 0 mm | - | - | - |
| 1777856790 | 31.11° C | 29% | 1007.9 hPa | 0 mm | - | - | - |
| 1777856249 | 31.67° C | 29% | 1007.9 hPa | 0 mm | - | - | - |
| 1777855252 | 31.67° C | 29% | 1008 hPa | 0 mm | - | - | - |
| 1777854718 | 31.67° C | 29% | 1008 hPa | 0 mm | - | - | - |
| 1777854180 | 31.11° C | 29% | 1008.1 hPa | 0 mm | - | - | - |
| 1777853660 | 31.67° C | 29% | 1008 hPa | 0 mm | - | - | - |
| 1777853145 | 31.67° C | 27% | 1008.1 hPa | 0 mm | - | - | - |
| 1777852625 | 32.22° C | 27% | 1008.1 hPa | 0 mm | - | - | - |
| 1777852095 | 32.22° C | 28% | 1008.2 hPa | 0 mm | - | - | - |
| 1777851085 | 31.67° C | 28% | 1008.3 hPa | 0 mm | - | - | - |
| 1777850525 | 32.22° C | 28% | 1008.5 hPa | 0 mm | - | - | - |
| 1777849955 | 32.22° C | 27% | 1008.6 hPa | 0 mm | - | - | - |
| 1777849360 | 31.67° C | 25% | 1008.7 hPa | 0 mm | - | - | - |
| 1777848870 | 31.67° C | 25% | 1009 hPa | 0 mm | - | - | - |
| 1777848319 | 31.67° C | 27% | 1009.1 hPa | 0 mm | - | - | - |
| 1777847805 | 31.11° C | 28% | 1009.2 hPa | 0 mm | - | - | - |
| 1777847235 | 31.11° C | 27% | 1009.3 hPa | 0 mm | - | - | - |
| 1777846725 | 31.67° C | 28% | 1009.5 hPa | 0 mm | - | - | - |
| 1777846164 | 31.67° C | 31% | 1009.6 hPa | 0 mm | - | - | - |
| 1777845085 | 31.11° C | 33% | 1009.7 hPa | 0 mm | - | - | - |
| 1777844510 | 30.56° C | 35% | 1009.8 hPa | 0 mm | - | - | - |
| 1777843925 | 30° C | 38% | 1010 hPa | 0 mm | - | - | - |
| 1777843359 | 30° C | 39% | 1010.1 hPa | 0 mm | - | - | - |
| 1777842850 | 30° C | 39% | 1010.1 hPa | 0 mm | - | - | - |
* Rain latest hour (hover to see other rain measurements)
** Current wind speed in m/s (hover to see current wind gust speed)